Total_Precipitation_Accumulation
1.81 2.11 2.21 2.13 2.12 2.18 2.03 1.98 2.08 2.08 2.06 2.15 2.16 2.14 2.13 2.26 2.45 2.67 2.63 2.79 2.91 2.96 2.92 2.83 2.75 2.78 2.94 2.88 3.03 3.19 3.42 3.66 3.37 3.00 2.83 2.77 2.78 2.60 2.43 2.14 1.89 1.78 1.65
2.07 2.42 2.54 2.31 2.10 1.97 1.79 1.77 1.91 2.08 2.13 2.13 2.13 2.13 2.05 2.15 2.39 2.55 2.66 2.90 3.03 2.93 2.83 2.80 2.69 2.81 2.92 2.90 2.99 2.98 3.07 3.38 3.27 3.03 2.96 2.98 2.87 2.68 2.55 2.37 2.00 1.82 1.85
1.93 2.30 2.34 2.08 1.84 1.79 1.77 1.78 1.89 2.06 2.08 2.07 2.12 2.18 2.27 2.37 2.52 2.62 2.74 2.91 2.89 2.78 2.79 2.71 2.59 2.69 2.64 2.71 2.75 2.75 2.75 2.88 3.08 2.97 2.86 2.93 2.84 2.69 2.60 2.43 2.31 2.40 2.19
1.54 1.88 1.86 1.70 1.64 1.65 1.67 1.70 1.70 1.78 1.83 1.88 2.10 2.33 2.46 2.59 2.68 2.71 2.71 2.68 2.67 2.56 2.46 2.40 2.42 2.55 2.66 2.65 2.56 2.54 2.62 2.76 2.87 2.91 2.88 2.95 2.97 2.98 2.86 2.68 2.66 2.59 2.40
1.50 1.74 1.69 1.61 1.63 1.57 1.53 1.64 1.71 1.76 1.79 2.01 2.17 2.27 2.32 2.36 2.43 2.58 2.56 2.46 2.44 2.34 2.24 2.08 2.12 2.45 2.61 2.58 2.37 2.47 2.55 2.61 2.70 2.82 2.87 2.98 3.05 3.26 3.07 2.76 2.62 2.65 2.49
1.43 1.67 1.64 1.56 1.53 1.43 1.48 1.60 1.72 1.81 1.99 2.17 2.15 2.14 2.10 1.79 1.90 2.03 2.07 2.11 2.16 2.13 2.01 1.95 1.94 2.02 2.06 2.10 2.10 2.12 2.19 2.26 2.48 2.76 2.84 2.85 2.82 2.92 3.02 2.92 2.81 2.75 2.68
1.47 1.68 1.70 1.62 1.58 1.52 1.48 1.65 1.81 2.01 2.20 2.30 2.27 2.20 2.05 1.93 1.82 1.72 1.71 1.78 1.93 1.95 1.98 2.04 1.76 1.58 1.72 1.75 1.89 1.88 1.83 1.92 2.07 2.33 2.52 2.53 2.64 2.65 2.91 2.94 3.00 3.03 2.96
1.44 1.67 1.75 1.70 1.72 1.80 1.82 1.88 2.05 2.28 2.44 2.45 2.42 2.32 2.20 2.10 2.00 1.82 1.79 1.71 1.81 1.85 1.86 1.88 1.83 1.70 1.66 1.78 1.86 1.80 1.65 1.62 1.62 1.60 1.82 2.12 2.38 2.63 2.68 2.75 2.87 2.94 2.94
1.40 1.63 1.77 1.82 1.90 1.92 1.99 2.24 2.41 2.56 2.59 2.55 2.61 2.51 2.39 2.37 2.19 1.85 1.68 1.60 1.75 1.80 1.81 1.76 1.72 1.64 1.70 1.58 1.53 1.54 1.55 1.54 1.40 1.39 1.48 1.70 1.91 1.98 2.20 2.46 2.68 2.67 2.62
1.74 1.83 2.06 2.27 2.44 2.51 2.58 2.63 2.69 2.77 2.72 2.72 2.64 2.62 2.50 2.44 2.35 1.82 1.56 1.48 1.67 1.73 1.80 1.75 1.63 1.48 1.47 1.36 1.32 1.46 1.47 1.47 1.49 1.42 1.32 1.36 1.44 1.61 1.72 1.80 2.12 2.34 2.26
2.16 2.22 2.43 2.76 2.95 2.93 2.99 2.88 2.77 2.77 2.78 2.78 2.68 2.58 2.50 2.40 2.31 1.87 1.66 1.61 1.75 1.84 1.81 1.73 1.66 1.54 1.34 1.30 1.25 1.29 1.36 1.36 1.44 1.48 1.43 1.39 1.49 1.61 1.58 1.56 1.73 1.96 2.04
2.45 2.64 2.89 3.14 3.00 2.92 3.07 2.96 2.94 3.00 2.98 2.87 2.77 2.65 2.64 2.55 2.31 1.97 1.73 1.72 1.81 1.88 1.93 1.89 1.80 1.58 1.33 1.26 1.18 1.15 1.14 1.07 1.09 1.27 1.33 1.30 1.35 1.47 1.55 1.54 1.61 1.68 1.77
2.64 2.80 2.92 3.00 3.13 3.26 3.31 3.17 3.07 3.05 2.99 2.80 2.69 2.52 2.41 2.47 2.45 2.03 1.72 1.74 1.79 1.78 1.93 1.99 1.73 1.48 1.32 1.16 1.15 1.15 1.04 0.94 1.03 1.13 1.15 1.16 1.19 1.32 1.54 1.71 1.77 1.80 1.76
2.50 2.52 2.62 2.77 2.90 3.02 3.26 3.29 3.16 2.99 2.88 2.79 2.71 2.55 2.43 2.42 2.38 2.03 1.71 1.67 1.73 1.70 1.75 1.83 1.69 1.52 1.36 1.21 1.14 1.10 1.03 1.08 1.17 1.18 1.21 1.27 1.30 1.38 1.49 1.58 1.69 1.78 1.77
2.54 2.47 2.42 2.44 2.58 2.72 2.83 2.92 2.86 2.81 2.63 2.49 2.35 2.27 2.20 2.19 2.20 1.99 1.76 1.69 1.78 1.85 1.82 1.81 1.77 1.62 1.47 1.35 1.30 1.33 1.38 1.38 1.32 1.32 1.37 1.39 1.38 1.38 1.44 1.51 1.59 1.67 1.65
2.44 2.33 2.31 2.29 2.36 2.41 2.41 2.37 2.24 2.15 1.99 1.80 1.70 1.63 1.60 1.65 1.79 1.64 1.51 1.56 1.72 1.83 1.72 1.66 1.75 1.72 1.62 1.53 1.48 1.48 1.48 1.44 1.40 1.42 1.40 1.39 1.38 1.37 1.41 1.46 1.48 1.49 1.49
2.32 2.16 2.04 1.98 2.00 2.00 2.04 2.17 2.24 2.01 1.81 1.59 1.44 1.30 1.26 1.35 1.45 1.46 1.44 1.48 1.60 1.63 1.49 1.50 1.60 1.64 1.59 1.55 1.49 1.46 1.41 1.46 1.50 1.44 1.39 1.41 1.42 1.41 1.44 1.47 1.47 1.49 1.47
2.21 2.12 1.99 1.94 1.95 1.96 1.99 2.08 2.20 2.19 1.92 1.55 1.41 1.29 1.11 1.06 1.09 1.16 1.22 1.27 1.32 1.33 1.29 1.34 1.40 1.47 1.50 1.52 1.52 1.52 1.47 1.48 1.50 1.49 1.45 1.46 1.47 1.43 1.43 1.43 1.39 1.41 1.51
2.06 2.01 1.92 1.93 1.91 1.92 2.03 2.07 2.05 2.09 1.96 1.73 1.47 1.25 1.10 0.96 0.96 1.03 1.03 1.02 1.13 1.17 1.16 1.20 1.24 1.28 1.33 1.39 1.41 1.46 1.47 1.46 1.46 1.48 1.43 1.42 1.47 1.48 1.47 1.46 1.46 1.49 1.51
1.97 1.88 1.76 1.74 1.70 1.64 1.67 1.76 1.78 1.84 1.81 1.72 1.57 1.28 1.04 0.92 0.93 0.99 0.98 1.06 1.16 1.18 1.16 1.20 1.17 1.17 1.21 1.29 1.35 1.43 1.46 1.47 1.50 1.49 1.48 1.47 1.48 1.50 1.49 1.49 1.52 1.55 1.56
1.90 1.69 1.45 1.33 1.39 1.47 1.55 1.63 1.65 1.67 1.70 1.66 1.46 1.20 0.98 0.85 0.93 1.05 1.12 1.14 1.13 1.14 1.12 1.11 1.09 1.10 1.14 1.21 1.29 1.35 1.41 1.49 1.48 1.48 1.53 1.51 1.46 1.46 1.45 1.49 1.49 1.50 1.55
1.76 1.61 1.42 1.31 1.35 1.40 1.47 1.59 1.63 1.59 1.56 1.55 1.44 1.23 1.08 0.92 0.97 1.06 1.10 1.08 1.06 1.10 1.08 1.05 1.02 1.05 1.10 1.18 1.28 1.33 1.37 1.39 1.41 1.45 1.47 1.49 1.49 1.47 1.46 1.51 1.51 1.50 1.53
1.74 1.67 1.55 1.45 1.49 1.50 1.51 1.55 1.53 1.47 1.46 1.44 1.39 1.28 1.18 1.12 1.11 1.14 1.14 1.12 1.12 1.10 1.10 1.09 1.06 1.05 1.10 1.18 1.23 1.27 1.32 1.31 1.31 1.33 1.40 1.47 1.50 1.51 1.55 1.58 1.53 1.48 1.47
1.56 1.58 1.52 1.44 1.43 1.48 1.45 1.48 1.43 1.39 1.35 1.32 1.27 1.24 1.19 1.19 1.20 1.17 1.17 1.15 1.10 0.99 0.93 0.94 0.97 1.00 1.03 1.05 1.05 1.07 1.09 1.13 1.13 1.16 1.24 1.33 1.39 1.47 1.55 1.59 1.56 1.51 1.57
1.48 1.53 1.53 1.52 1.50 1.49 1.52 1.55 1.48 1.40 1.36 1.31 1.29 1.26 1.22 1.20 1.18 1.21 1.19 1.09 1.00 0.96 0.92 0.93 0.97 0.95 0.90 0.91 0.91 0.92 1.03 1.04 0.99 1.04 1.15 1.31 1.37 1.47 1.61 1.65 1.64 1.66 1.75
1.37 1.39 1.41 1.43 1.44 1.45 1.43 1.45 1.44 1.36 1.28 1.21 1.18 1.17 1.11 1.05 1.03 1.02 1.00 0.96 0.96 0.97 0.96 0.96 0.98 0.97 0.94 0.90 0.92 0.98 0.99 0.94 0.95 1.03 1.02 1.08 1.22 1.33 1.44 1.51 1.49 1.58 1.70